Location: Unspecified
(0.0000°N, 0.0000°E)
Time: 22:35:08
(UTC+00:00)

GONETS D1M 1 - Pass Details

Date: 25 May 2026
Orbit: 1435 x 1447 km, 82.5° (Epoch: 7 June)

Event Time Altitude Azimuth Distance (km) Brightness Sun altitude
Rises 03:33:24 0° 145° (SE) 4,538 9.4 -33.2°
Reaches altitude 10° 03:38:16 10° 121° (ESE) 3,559 9.1 -32.1°
Maximum altitude 03:42:06 14° 93° (E) 3,273 9.2 -31.2°
Drops below altitude 10° 03:45:54 10° 66° (ENE) 3,557 9.6 -30.4°
Sets 03:50:42 0° 42° (NE) 4,532 10.3 -29.3°
